Hourly Weather Bіlozіrka (Barmashove)

Today, 19 April, Monday

Time Temperature Precipitation Wind Pressure Humidity
00:00 +11°C° 0 mm 1 mps 756 mmHg 63%
01:00 +11°C° 0 mm 1 mps 756 mmHg 66%
02:00 +11°C° 0 mm 1 mps 756 mmHg 68%
03:00 +11°C° 0 mm 1 mps 756 mmHg 69%
04:00 +11°C° 0 mm 1 mps 756 mmHg 70%
05:00 +11°C° 0 mm 1 mps 756 mmHg 71%
06:00 +11°C° 0 mm 1 mps 756 mmHg 69%
07:00 +12°C° 0 mm 1 mps 756 mmHg 66%
08:00 +12°C° 0 mm 2 mps 756 mmHg 63%
09:00 +12°C° 0 mm 1 mps 756 mmHg 63%
10:00 +12°C° 0 mm 1 mps 756 mmHg 63%
11:00 +12°C° 0 mm 1 mps 756 mmHg 63%
12:00 +13°C° 0 mm 1 mps 756 mmHg 62%
13:00 +13°C° 0 mm 1 mps 755 mmHg 61%
14:00 +14°C° 0 mm 1 mps 755 mmHg 60%
15:00 +14°C° 0 mm 1 mps 755 mmHg 59%
16:00 +14°C° 0 mm 1 mps 754 mmHg 58%
17:00 +14°C° 0 mm 1 mps 754 mmHg 57%
18:00 +13°C° 0 mm 1 mps 754 mmHg 61%
19:00 +12°C° 0 mm 2 mps 754 mmHg 66%
20:00 +10°C° 0 mm 2 mps 754 mmHg 70%
21:00 +10°C° 0 mm 2 mps 753 mmHg 72%
22:00 +10°C° 0 mm 2 mps 753 mmHg 73%
23:00 +9°C° 0 mm 3 mps 752 mmHg 75%

Tomorrow, 20 April, Tuesday

Time Temperature Precipitation Wind Pressure Humidity
00:00 +9°C° 0 mm 3 mps 752 mmHg 75%
01:00 +9°C° 0 mm 3 mps 751 mmHg 76%
02:00 +9°C° 0 mm 3 mps 750 mmHg 77%
03:00 +8°C° 0.9 mm 4 mps 750 mmHg 81%
04:00 +8°C° 0.9 mm 4 mps 749 mmHg 86%
05:00 +7°C° 0.9 mm 4 mps 749 mmHg 90%
06:00 +7°C° 2.4 mm 5 mps 748 mmHg 92%
07:00 +7°C° 2.4 mm 6 mps 748 mmHg 93%
08:00 +7°C° 2.4 mm 6 mps 747 mmHg 94%
09:00 +6°C° 2.1 mm 7 mps 747 mmHg 93%
10:00 +6°C° 2.1 mm 7 mps 747 mmHg 91%
11:00 +6°C° 2.1 mm 8 mps 746 mmHg 90%
12:00 +6°C° 0.6 mm 8 mps 746 mmHg 89%
13:00 +6°C° 0.6 mm 8 mps 746 mmHg 88%
14:00 +7°C° 0.6 mm 8 mps 747 mmHg 87%
15:00 +8°C° 0.3 mm 7 mps 747 mmHg 84%
16:00 +8°C° 0.3 mm 6 mps 748 mmHg 81%
17:00 +9°C° 0.3 mm 6 mps 748 mmHg 79%
18:00 +8°C° 0 mm 5 mps 749 mmHg 80%
19:00 +8°C° 0 mm 4 mps 749 mmHg 81%
20:00 +7°C° 0 mm 4 mps 750 mmHg 82%
21:00 +7°C° 0 mm 4 mps 751 mmHg 83%
22:00 +6°C° 0 mm 4 mps 751 mmHg 85%
23:00 +6°C° 0 mm 4 mps 752 mmHg 87%

Day after tomorrow, 21 April, Wednesday

Time Temperature Precipitation Wind Pressure Humidity
00:00 +5°C° 0 mm 3 mps 752 mmHg 87%
01:00 +5°C° 0 mm 3 mps 752 mmHg 87%
02:00 +4°C° 0 mm 3 mps 753 mmHg 87%
03:00 +4°C° 0 mm 3 mps 753 mmHg 87%
04:00 +4°C° 0 mm 3 mps 753 mmHg 87%
05:00 +5°C° 0 mm 2 mps 754 mmHg 87%
06:00 +7°C° 0 mm 2 mps 754 mmHg 81%
07:00 +9°C° 0 mm 2 mps 755 mmHg 74%
08:00 +12°C° 0 mm 2 mps 755 mmHg 68%
09:00 +12°C° 0.2 mm 3 mps 755 mmHg 63%
10:00 +13°C° 0.2 mm 3 mps 755 mmHg 58%
11:00 +14°C° 0.2 mm 4 mps 755 mmHg 54%
12:00 +14°C° 0.3 mm 4 mps 756 mmHg 54%
13:00 +14°C° 0.3 mm 5 mps 756 mmHg 53%
14:00 +15°C° 0.3 mm 5 mps 756 mmHg 53%
15:00 +14°C° 0.2 mm 5 mps 756 mmHg 57%
16:00 +14°C° 0.2 mm 5 mps 756 mmHg 60%
17:00 +13°C° 0.2 mm 5 mps 756 mmHg 64%
18:00 +12°C° 0 mm 4 mps 757 mmHg 72%
19:00 +10°C° 0 mm 4 mps 757 mmHg 80%
20:00 +9°C° 0 mm 3 mps 757 mmHg 88%
21:00 +8°C° 0 mm 3 mps 757 mmHg 89%
22:00 +8°C° 0 mm 3 mps 757 mmHg 91%
23:00 +7°C° 0 mm 3 mps 758 mmHg 92%

22 April, Thursday

Time Temperature Precipitation Wind Pressure Humidity
00:00 +7°C° 0 mm 3 mps 758 mmHg 92%
01:00 +7°C° 0 mm 3 mps 758 mmHg 92%
02:00 +7°C° 0 mm 3 mps 758 mmHg 91%
03:00 +7°C° 0 mm 3 mps 758 mmHg 91%
04:00 +7°C° 0 mm 3 mps 758 mmHg 91%
05:00 +7°C° 0 mm 3 mps 758 mmHg 91%
06:00 +9°C° 0 mm 3 mps 758 mmHg 84%
07:00 +11°C° 0 mm 3 mps 759 mmHg 77%
08:00 +13°C° 0 mm 4 mps 759 mmHg 70%
09:00 +14°C° 0.1 mm 4 mps 759 mmHg 63%
10:00 +15°C° 0.1 mm 5 mps 759 mmHg 55%
11:00 +17°C° 0.1 mm 5 mps 759 mmHg 48%
12:00 +17°C° 0 mm 5 mps 759 mmHg 47%
13:00 +17°C° 0 mm 6 mps 759 mmHg 46%
14:00 +17°C° 0 mm 6 mps 759 mmHg 45%
15:00 +16°C° 0 mm 6 mps 759 mmHg 48%
16:00 +16°C° 0 mm 5 mps 759 mmHg 52%
17:00 +15°C° 0 mm 5 mps 759 mmHg 55%
18:00 +13°C° 0 mm 5 mps 759 mmHg 63%
19:00 +12°C° 0 mm 4 mps 759 mmHg 71%
20:00 +10°C° 0 mm 4 mps 760 mmHg 79%
21:00 +10°C° 0 mm 4 mps 760 mmHg 82%
22:00 +8°C° 0 mm 4 mps 760 mmHg 84%
23:00 +8°C° 0 mm 4 mps 760 mmHg 86%

23 April, Friday

Time Temperature Precipitation Wind Pressure Humidity
00:00 +7°C° 0 mm 4 mps 759 mmHg 87%
01:00 +7°C° 0 mm 4 mps 759 mmHg 88%
02:00 +7°C° 0 mm 4 mps 759 mmHg 89%
03:00 +7°C° 0 mm 4 mps 759 mmHg 89%
04:00 +7°C° 0 mm 4 mps 759 mmHg 89%
05:00 +6°C° 0 mm 4 mps 759 mmHg 89%
06:00 +8°C° 0 mm 5 mps 759 mmHg 81%
07:00 +10°C° 0 mm 5 mps 759 mmHg 74%
08:00 +13°C° 0 mm 6 mps 759 mmHg 66%
09:00 +14°C° 0 mm 6 mps 759 mmHg 62%
10:00 +15°C° 0 mm 7 mps 759 mmHg 58%
11:00 +16°C° 0 mm 7 mps 759 mmHg 54%
12:00 +16°C° 0 mm 7 mps 758 mmHg 52%
13:00 +16°C° 0 mm 7 mps 758 mmHg 51%
14:00 +17°C° 0 mm 7 mps 758 mmHg 49%
15:00 +16°C° 0 mm 7 mps 757 mmHg 52%
16:00 +15°C° 0 mm 7 mps 757 mmHg 55%
17:00 +15°C° 0 mm 6 mps 757 mmHg 57%
18:00 +13°C° 0 mm 5 mps 757 mmHg 64%
19:00 +12°C° 0 mm 5 mps 757 mmHg 71%
20:00 +10°C° 0 mm 4 mps 757 mmHg 77%
21:00 +10°C° 0 mm 4 mps 757 mmHg 80%
22:00 +8°C° 0 mm 4 mps 757 mmHg 82%
23:00 +8°C° 0 mm 4 mps 756 mmHg 85%

24 April, Saturday

Time Temperature Precipitation Wind Pressure Humidity
00:00 +8°C° 0.2 mm 5 mps 756 mmHg 86%
01:00 +7°C° 0.2 mm 5 mps 756 mmHg 87%
02:00 +6°C° 0.2 mm 5 mps 756 mmHg 88%
03:00 +6°C° 0.2 mm 5 mps 757 mmHg 87%
04:00 +4°C° 0.2 mm 6 mps 757 mmHg 86%
05:00 +4°C° 0.2 mm 6 mps 757 mmHg 85%
06:00 +5°C° 0 mm 6 mps 758 mmHg 80%
07:00 +5°C° 0 mm 6 mps 758 mmHg 76%
08:00 +7°C° 0 mm 6 mps 759 mmHg 71%
09:00 +8°C° 0 mm 6 mps 759 mmHg 63%
10:00 +10°C° 0 mm 6 mps 759 mmHg 54%
11:00 +11°C° 0 mm 6 mps 759 mmHg 46%
12:00 +13°C° 0 mm 6 mps 759 mmHg 45%
13:00 +12°C° 0 mm 7 mps 759 mmHg 43%
14:00 +12°C° 0 mm 7 mps 759 mmHg 42%
15:00 +13°C° 0 mm 6 mps 759 mmHg 42%
16:00 +13°C° 0 mm 5 mps 760 mmHg 42%
17:00 +12°C° 0 mm 4 mps 760 mmHg 42%
18:00 +11°C° 0 mm 3 mps 760 mmHg 46%
19:00 +10°C° 0 mm 2 mps 760 mmHg 51%
20:00 +9°C° 0 mm 1 mps 761 mmHg 55%
21:00 +9°C° 0 mm 1 mps 761 mmHg 56%
22:00 +8°C° 0 mm 2 mps 761 mmHg 58%
23:00 +7°C° 0 mm 2 mps 761 mmHg 59%
Show more